Showing default

ARVAKER-2, 64567

Orbit data source: Space-Track

ARVAKER-2, 64567 is a payload satellite owned by NSC (NO) in SSO that was launched on Mon, 23 Jun 2025 UTC via an FALCON 9 launch vehicle from the Air Force Western Test Range (AFWTR). Payload-class satellites include a variety of spacecraft equipped with specific instruments for various scientific and technological missions. These include communications satellites like Starlink; space stations such as the ISS; scientific satellites like the Hubble; Earth observation satellites from companies like Planet Labs, Umbra, and HawkEye 360; GPS; miniature CubeSats for education and research; and military/defense satellites.

Loading next visibility...
Identifier
64567, 2025-135AR
Orbit
SSO
Country
Flag of NONO / NOR
Related business
Manufacturer
NanoAvionics
Mission
Operational Commercial Sigint
Bus & Motor
MP42, Unknown motor
Mass
~100 kg wet, ~100 kg dry
Launch date (UTC)
2025-06-23 (1 year ago)
Launch vehicle
FALCON 9
Launch site
Air Force Western Test Range (AFWTR)
Object type
Payload
Rocket body
Debris
Shape & HBR
Box + 2 Pan, 0.5 m
Radar Cross Section
0.146 m², Medium (>0.1 m² and < 1m²)

Expand to show TLE details & history
Last TLE update: 5 hours ago

TLE from 5 hours ago
0 ARVAKER-2
1 64567U 25135AR  26178.55164095  .00001901  00000-0  18551-3 0  9997
2 64567  97.7750 292.5937 0000156  51.0988 309.0245 14.93594759 55420
Epoch: 2026-06-27T13:14Z
TLE epoch observation values (Epoch: 2026-06-27T13:14:21.778Z)
Latitude
-0.00006°
Longitude
178.3388°
Altitude
589.713 km
Speed
7.565 km/s
True Right ascension
19h 30m 22s
True Declination
0° 00' 00"
Sunlit
Object was in full shadow at epoch
Visualization orbit readout
Latitude
Unknown
Longitude
Unknown
Altitude
Unknown
Speed
Unknown
Apparent Right ascension
Unknown
Apparent Declination
Unknown
Sunlit
N/A
Visualization observer readout
Local Sidereal Time
05:15:17
Azimuth
Unknown
Elevation
Unknown
Doppler factor
Unknown
Orbital elements
Apogee altitude
583.864 km
Perigee altitude
583.646 km
Semi-major axis
6,961.892 km
Eccentricity
0.00002
Inclination
97.775°
RAAN
292.5937°
Arg. of periapsis
51.0988°
True anomaly
309.02311°
Mean anomaly
309.0245°
Eccentric anomaly
309.02381°
Mean motion
3.73639 °/min
Orbital period
96.35 mins
BSTAR
0.00018551
Loading maneuver chart data...
Computing Atmospheric mass density...
Loading historical data...
Loading historical data...
Loading historical data...
Loading historical data...
Loading historical data...
Loading historical data...
Loading historical data...

Documentation

Showing up to 5 results
|